This demonstration page uses our WeatherBlox Daily Observations layout. Learn more.

Left ArrowRight Arrow

34.74481, -87.66753

Hourly Observations for April 22, 2015

Temp ( °F °C ) Dew Point ( °F °C ) Humidity (%) Winds ( mph kmh ) Pressure ( in mb ) Visibility ( mi km ) Precip ( " mm )
12:53 am 00:53 Clear 50 10 43 6.1 77 77 Calm 29.96 1015 10 16 0.00 0.00
1:53 am 01:53 Clear 50 10 42 5.6 74 74 S 6 9 29.94 1014 10 16 0.00 0.00
2:53 am 02:53 Clear 54 12.2 38 3.3 55 55 S 5 7 29.93 1014 10 16 0.00 0.00
3:53 am 03:53 Clear 48 8.9 41 5 77 77 Calm 29.95 1014 10 16 0.00 0.00
4:53 am 04:53 Clear 48 8.9 42 5.6 80 80 Calm 29.93 1014 10 16 0.00 0.00
5:53 am 05:53 Clear 46 7.8 41 5 83 83 Calm 29.95 1014 10 16 0.00 0.00
6:53 am 06:53 Sunny 50 10 43 6.1 77 77 Calm 29.97 1015 10 16 0.00 0.00
7:53 am 07:53 Sunny 56 13.3 49 9.4 77 77 WSW 7 11 29.98 1015 10 16 0.00 0.00
8:53 am 08:53 Sunny 62 16.7 49 9.4 62 62 W 13 20 30.00 1016 10 16 0.00 0.00
9:53 am 09:53 Mostly Cloudy 65 18.3 51 10.6 61 61 W 7 11 30.00 1016 10 16 0.00 0.00
10:53 am 10:53 Mostly Sunny 67 19.4 50 10 55 55 SW 9 15 29.98 1015 10 16 0.00 0.00
11:53 am 11:53 Sunny 71 21.7 52 11.1 51 51 W 16 26 29.97 1015 10 16 0.00 0.00
12:53 pm 12:53 Sunny 74 23.3 56 13.3 54 54 W 14 22 29.95 1014 10 16 0.00 0.00
1:53 pm 13:53 Sunny 76 24.4 55 12.8 48 48 W 16 26 29.94 1014 10 16 0.00 0.00
2:53 pm 14:53 Sunny 76 24.4 56 13.3 50 50 W 16 26 29.92 1013 10 16 0.00 0.00
3:53 pm 15:53 Mostly Sunny 75 23.9 55 12.8 50 50 W 13 20 29.90 1013 10 16 0.00 0.00
4:53 pm 16:53 Mostly Cloudy 73 22.8 54 12.2 51 51 WNW 9 15 29.90 1013 10 16 0.00 0.00
5:04 pm 17:04 Mostly Cloudy with Thunderstorms 71 21.7 56 13.3 59 59 NW 17 28 29.91 1013 6 10 0.02 0.51
5:06 pm 17:06 Windy with Storms Likely 69 20.6 56 13.3 63 63 N 20 31 29.91 1013 2 3 0.10 2.54
5:16 pm 17:16 Cloudy with Thunderstorms 66 18.9 57 13.9 73 73 WSW 10 17 29.88 1012 3 5 0.15 3.81
5:53 pm 17:53 Cloudy 65 18.3 57 13.9 76 76 WSW 7 11 29.93 1014 10 16 0.15 3.81
6:53 pm 18:53 Mostly Cloudy 66 18.9 53 11.7 63 63 NW 7 11 29.94 1014 10 16 0.00 0.00
7:53 pm 19:53 Clear 61 16.1 55 12.8 81 81 WNW 5 7 29.94 1014 10 16 0.00 0.00
8:53 pm 20:53 Clear 61 16.1 54 12.2 78 78 NNW 5 7 29.94 1014 10 16 0.00 0.00
9:53 pm 21:53 Mostly Clear 61 16.1 52 11.1 72 72 NNW 3 6 29.96 1014 10 16 0.00 0.00
10:53 pm 22:53 Cloudy 60 15.6 52 11.1 75 75 N 5 7 29.96 1015 10 16 0.00 0.00
11:53 pm 23:53 Cloudy 60 15.6 51 10.6 72 72 N 5 7 29.98 1015 10 16 0.00 0.00

Powered by AerisWeather